Forside
METAR-TAF:

METAR-TAF

Lufthavne :

Prairie du Chien Municipal Airport

Prairie du Chien, Wisconsin, USA

Breddekreds: 43-01-19N, længdekreds: 091-07-29W, højde: 201 m

Aktuelle vejr

Denne rapport blev lavet for 20 minutter siden, kl. 21:55 UTC
Vind 6 kt fra vest
Temperatur 17°C
Fugtighed 29%
Tryk 1019 hPa
Sigt: 16.1 km
Spredte skyer i en højde af 11000 ft

METAR: KPDC 052155Z AUTO 28006KT 10SM SCT110 17/M01 A3010 RMK AO2 T01701012

Tid: 17:15 (22:15 UTC)


TAF: fraværende

Vejrobservationer og prognoser fra mere end 4000 lufthavne (METAR og TAF).

De gule og røde prikker repræsenterer de meteorologiske stationer.

Flyt musen over at se navnet på stationen.

Så klik over at se vejr observationer og prognoser.

At skifte det kort: Klik på de grønne knapper med et sort kors for at zoome ind; på den grønne knap med en bindestreg for at zoome ud; eller på de grønne pile for tilstødende kort.


METAR-TAF: